Location: Newark
(34.6501°N, 117.8502°W)
Time: 11:03:03
(UTC+00:00)

BlueWalker 3 - Pass Details

Date: 11 December 2022
Orbit: 499 x 517 km, 53.2° (Epoch: 04 February)

Event Time Altitude Azimuth Distance (km) Brightness Sun altitude
Rises 02:25:31 0° 316° (NW) 2,617 6.0 -20.9°
Reaches altitude 10° 02:27:43 10° 318° (NW) 1,725 5.0 -21.4°
Enters shadow 02:31:14 68° 347° (NNW) 545 2.0 -22.1°
